Location: Arbon
(43.0005°N, 0.7472°E)
Time: 03:16:22
(UTC+00:00)

IDEFIX/ARIANE 42P - Pass Details

Date: 07 August 2020
Orbit: 786 x 802 km, 98.4° (Epoch: 27 September)

Event Time Altitude Azimuth Distance (km) Brightness Sun altitude
Rises 02:11:12 0° 25° (NNE) 3,290 7.2 -23.8°
Reaches altitude 10° 02:13:56 10° 39° (NE) 2,357 6.1 -23.5°
Maximum altitude 02:18:11 25° 94° (E) 1,553 4.4 -23.0°
Enters shadow 02:21:53 12° 145° (SE) 2,193 4.7 -22.6°
